sat.trackr.live / text

‹ back to catalog

STARLINK-37955

NORAD 69700 · 2026-145Z

PAYLOAD ACTIVE UNKNOWN

§ Identity

Operator
Country
US
Launch date
2026-06-25
Launch site
AFWTR
Launch vehicle
Mass (kg)
RCS (m²)

Purposes: comms

External: N2YO · Heavens-Above · Gunter

§ Orbital elements

Epoch: 2026-09-19T19:35:01.625856Z

Period
93.91 min
Inclination
97.2869°
Eccentricity
0.0002855
Mean motion
15.33454744 rev/d
Perigee alt
463.6 km
Apogee alt
467.5 km
Semi-major
6,843.7 km
B*
3.5155e-4
RAAN
109.5743°
Arg perigee
91.6989°
Mean anomaly
268.4581°
Rev number
1,344

§ Raw data

STARLINK-379551 69700U 26145Z   26262.81599104  .00011296  00000+0  35155-3 0  99952 69700  97.2869 109.5743 0002855  91.6989 268.4581 15.33454744 13442

JSON: /api/v1/satellites/69700 · /tle

For live sub-satellite position, see the globe view (requires WebGL).

§ Visibility from observer

Set your observer location to see the next 7 days of passes ≥ 10°. The values pass through the URL so the page stays shareable.

No JS? Fill the form by hand. The geolocation button needs JavaScript.